Location: Unspecified
(49.2170°N, 0.0000°E)
Time: 15:44:32
(UTC+00:00)

Tiros 1 despin weight - Pass Details

Date: 26 January 2021
Orbit: 593 x 642 km, 48.2° (Epoch: 07 March)

Event Time Altitude Azimuth Distance (km) Brightness Sun altitude
Rises 12:24:06 0° 193° (SSW) 2,898 ? 22.2°
Reaches altitude 10° 12:27:31 10° 166° (SSE) 1,985 ? 22.1°
Maximum altitude 12:29:41 13° 138° (SE) 1,770 ? 22.1°
Drops below altitude 10° 12:31:51 10° 109° (ESE) 1,975 ? 22.1°
Sets 12:35:14 0° 83° (E) 2,872 ? 22.0°
